Weather History for KTWF - February, 2013

Change the Weather History Date:

Friday, February 15, 2013

  Actual Average Record
Temperature  
Mean Temperature 40 °F -  
Max Temperature 49 °F 42 °F - ()
Min Temperature 31 °F 23 °F - ()
Degree Days  
Heating Degree Days 25 32  
Month to date heating degree days 460 505  
Since 1 July heating degree days 3879 4173  
Cooling Degree Days 0 0  
Month to date cooling degree days 0 0  
Year to date cooling degree days 0 0  
Moisture  
Dew Point 27 °F    
Average Humidity 63    
Maximum Humidity 75    
Minimum Humidity 50    
Precipitation  
Precipitation 0.00 in 0.03 in - ()
Month to date precipitation 0.38 0.45  
Year to date precipitation 0.52 1.43  
Sea Level Pressure  
Sea Level Pressure 30.43 in    
Wind  
Wind Speed 9 mph (SSW)    
Max Wind Speed 18 mph    
Max Gust Speed 23 mph    
Visibility 10 miles    
Events      
T = Trace of Precipitation, MM = Missing Value Source: NWS Daily Summary

Daily Weather History Graph

Daily Weather History Graph

Search for Another Location

Airport or City:

Trip Planner

Search our weather history database for the weather conditions in past years. The results will help you decide how hot, cold, wet, or windy it might be!

Date:

Astronomy

Feb. 15, 2013 Rise Set
Actual Time 7:34 AM MST 6:10 PM MST
Civil Twilight 7:05 AM MST 6:39 PM MST
Nautical Twilight 6:32 AM MST 7:12 PM MST
Astronomical Twilight 5:59 AM MST 7:45 PM MST
Moon 10:04 AM MST (2/15) No Moon Set
Length of Visible Light 11h 34m
Length of Day
10h 36m
Waxing Crescent, 31% of the Moon is Illuminated
Feb 15
Waxing Crescent
Feb 17
First Quarter
Feb 25
Full
Mar 4
Last Quarter
Mar 11
New

Hourly Weather History & Observations

Time (MST) Temp. Windchill Dew Point Humidity Pressure Visibility Wind Dir Wind Speed Gust Speed Precip Events Conditions
12:53 AM 33.1 °F 23.4 °F 25.0 °F 72% 30.42 in 10.0 mi South 13.8 mph - N/A   Clear
1:53 AM 35.1 °F 25.9 °F 25.0 °F 67% 30.42 in 10.0 mi SSW 13.8 mph - N/A   Clear
2:53 AM 36.0 °F 25.6 °F 25.0 °F 64% 30.41 in 10.0 mi SW 18.4 mph - N/A   Clear
3:53 AM 36.0 °F 26.7 °F 25.0 °F 64% 30.42 in 10.0 mi SSW 15.0 mph - N/A   Clear
4:53 AM 33.1 °F 23.4 °F 25.0 °F 72% 30.44 in 10.0 mi South 13.8 mph - N/A   Clear
5:53 AM 35.1 °F 25.9 °F 25.0 °F 67% 30.44 in 10.0 mi SSW 13.8 mph - N/A   Clear
6:53 AM 34.0 °F 25.0 °F 24.1 °F 67% 30.46 in 10.0 mi SSW 12.7 mph - N/A   Clear
7:53 AM 33.1 °F 24.4 °F 24.1 °F 70% 30.47 in 10.0 mi SSW 11.5 mph - N/A   Clear
8:53 AM 36.0 °F 29.0 °F 26.1 °F 67% 30.49 in 10.0 mi SSW 9.2 mph - N/A   Clear
9:53 AM 39.9 °F 33.9 °F 27.0 °F 60% 30.48 in 10.0 mi SSW 9.2 mph - N/A   Clear
10:53 AM 43.0 °F 37.7 °F 28.0 °F 56% 30.48 in 10.0 mi WSW 9.2 mph - N/A   Clear
11:53 AM 44.1 °F 37.4 °F 28.0 °F 53% 30.49 in 10.0 mi WSW 13.8 mph - N/A   Clear
12:53 PM 45.0 °F 39.7 °F 28.9 °F 53% 30.47 in 10.0 mi SW 10.4 mph - N/A   Clear
1:53 PM 46.9 °F - 30.0 °F 52% 30.44 in 10.0 mi WSW 9.2 mph - N/A   Clear
2:53 PM 48.0 °F - 30.9 °F 52% 30.42 in 10.0 mi SW 8.1 mph - N/A   Clear
3:53 PM 48.0 °F - 30.0 °F 50% 30.41 in 10.0 mi West 4.6 mph - N/A   Partly Cloudy
5:53 PM 45.0 °F - 30.9 °F 58% 30.40 in 10.0 mi Calm Calm - N/A   Clear
6:53 PM 37.9 °F - 28.0 °F 68% 30.42 in 10.0 mi Calm Calm - N/A   Clear
7:53 PM 35.1 °F 28.6 °F 28.0 °F 76% 30.43 in 10.0 mi South 8.1 mph - N/A   Clear
8:53 PM 33.1 °F 26.1 °F 27.0 °F 78% 30.41 in 10.0 mi SSE 8.1 mph - N/A   Clear
9:53 PM 39.9 °F 37.8 °F 27.0 °F 60% 30.38 in 10.0 mi East 3.5 mph - N/A   Clear
10:53 PM 36.0 °F 32.1 °F 26.1 °F 67% 30.37 in 10.0 mi East 4.6 mph - N/A   Clear
11:53 PM 37.9 °F 33.5 °F 26.1 °F 62% 30.36 in 10.0 mi East 5.8 mph - N/A   Clear